Content
SEND FEEDBACK

Daily
Averages
Monthly
Summary
United States of America

CHELSEA, MICHIGAN


Home > North America > United States > Michigan
Elevation: 900 feet     Latitude: 42 19N     Longitude: 084 01W

WEATHER
 
SELECT A DAY
Number of Records: 208,835;   Date Range: 1/1/95 - 12/17/14
 
SHARE

PRINT THIS DATA

[ ← Previous Day ]
WEATHER ALMANAC - OCTOBER 1, 2013
[ Next Day → ]
[ °C ]   °F
Weather ElementAverageHighLow
Temperature52.5 °F68 °F (2:03 pm)43 °F (2:53 am)
Dewpoint50.9 °F61 °F (11:53 am)42.1 °F (2:53 am)
Humidity94.6 %100 % (12:37 am)76 % (3:53 pm)
Barometer29.99 in30.04 in (9:53 am)29.95 in (6:32 pm)
Wind Speed3.1 mph15 mph (3:53 pm)
Wind Gust20.7 mph (2:03 pm)
Weather ElementAverage
Visibility3.3 mi
Wind DirectionESE (102.3 °)

Weather ElementTotal
Precipitation---
Heating Degree Days9.5 (Base 65)
Growing Degree Days5.5 (Base 50)
Averaged from 61 records on October 1, 2013
WEATHER CONDITIONS BREAKOUT
WIND DIRECTION BREAKOUT
WEATHER BY HOUR - OCTOBER 1, 2013
[ °C ]   °F
Local TimeTemperatureDewpointHumidityBarometerVisibilityWind DirectionWind SpeedGust SpeedPrecipitationEventsConditions
12:37 AM44.6 °F44.6 °F100 %29.97 in0.8 miCalmMist
12:45 AM46.4 °F46.4 °F100 %29.97 in0.2 miCalmFogFog
12:53 AM46.9 °F46.0 °F97 %29.97 in0.2 miCalmFogFog
1:16 AM46.4 °F44.6 °F93 %29.97 in0.2 miCalmFogFog
1:53 AM45.0 °F45.0 °F100 %29.97 in0.2 miCalmFogFog
2:15 AM44.6 °F44.6 °F100 %29.97 in0.2 miCalmFogFog
2:29 AM46.4 °F44.6 °F93 %29.98 in1.8 miCalmPartly Cloudy
2:31 AM46.4 °F44.6 °F93 %29.98 in4.0 miCalmPartly Cloudy
2:34 AM46.4 °F46.4 °F100 %29.98 in1.5 miCalmScattered Clouds
2:36 AM46.4 °F46.4 °F100 %29.98 in0.8 miCalmMist
2:53 AM43.0 °F42.1 °F97 %29.98 in0.2 miCalmFogFog
3:07 AM46.4 °F44.6 °F93 %29.97 in1.2 miCalmClear
3:17 AM44.6 °F44.6 °F100 %29.97 in0.5 miCalmFogFog
3:33 AM44.6 °F44.6 °F100 %29.98 in0.2 miCalmFogFog
3:53 AM45.0 °F44.1 °F97 %29.98 in0.2 miCalmFogFog
4:12 AM44.6 °F44.6 °F100 %29.98 in0.2 miCalmFogFog
4:53 AM45.0 °F44.1 °F97 %29.99 in0.2 miCalmFogFog
5:15 AM44.6 °F44.6 °F100 %29.99 in1.2 miCalmPartly Cloudy
5:23 AM44.6 °F44.6 °F100 %29.99 in0.8 miCalmMist
5:34 AM46.4 °F44.6 °F93 %29.99 in1.0 miCalmClear
5:51 AM44.6 °F44.6 °F100 %29.99 in0.5 miCalmFogFog
5:53 AM45.0 °F44.1 °F97 %29.99 in0.8 miCalmClear
5:57 AM44.6 °F44.6 °F100 %29.99 in1.8 miCalmClear
6:08 AM44.6 °F44.6 °F100 %30.00 in3.0 miWSW (250°)3.5 mphClear
6:32 AM44.6 °F44.6 °F100 %30.00 in1.8 miWest (260°)3.5 mphClear
6:44 AM44.6 °F44.6 °F100 %30.00 in4.0 miCalmClear
6:53 AM46.0 °F45.0 °F96 %30.01 in6.0 miCalmClear
7:06 AM46.4 °F44.6 °F93 %30.01 in2.0 miCalmClear
7:09 AM46.4 °F44.6 °F93 %30.01 in1.2 miCalmClear
7:16 AM44.6 °F44.6 °F100 %30.01 in0.2 miCalmFogFog
7:53 AM45.0 °F44.1 °F97 %30.03 in1.5 miCalmMostly Cloudy
7:55 AM44.6 °F44.6 °F100 %30.02 in3.0 miWest (260°)3.5 mphMostly Cloudy
8:17 AM50.0 °F48.2 °F94 %30.02 in2.5 miSSW (210°)3.5 mphOvercast
8:21 AM51.8 °F50.0 °F94 %30.02 in1.5 miCalmOvercast
8:28 AM51.8 °F51.8 °F100 %30.02 in1.0 miCalmOvercast
8:36 AM51.8 °F51.8 °F100 %30.02 in0.2 miCalmFogFog
8:53 AM53.1 °F53.1 °F100 %30.03 in0.2 miSSW (200°)3.5 mphFogFog
9:53 AM55.0 °F55.0 °F100 %30.04 in0.2 miSSW (210°)3.5 mphFogFog
10:53 AM60.1 °F60.1 °F100 %30.03 in1.0 miSSW (210°)5.8 mphOvercast
11:32 AM60.8 °F60.8 °F100 %30.03 in1.8 miSSW (210°)5.8 mphOvercast
11:40 AM60.8 °F60.8 °F100 %30.03 in2.5 miSSW (210°)5.8 mphOvercast
11:45 AM60.8 °F60.8 °F100 %30.03 in3.0 miSSW (210°)5.8 mphOvercast
11:53 AM62.1 °F61.0 °F96 %30.03 in3.0 miSSW (210°)6.9 mphOvercast
12:09 PM62.6 °F60.8 °F94 %30.02 in5.0 miSW (220°)5.8 mphOvercast
12:39 PM64.4 °F60.8 °F88 %30.01 in6.0 miSW (220°)9.2 mphOvercast
12:53 PM64.9 °F60.1 °F84 %30.01 in7.0 miSW (220°)11.5 mphOvercast
1:53 PM66.9 °F61.0 °F81 %29.99 in10.0 miSSW (210°)8.1 mphOvercast
2:03 PM68.0 °F60.8 °F78 %29.99 in10.0 miSW (220°)11.5 mph20.7 mphOvercast
2:53 PM68.0 °F61.0 °F78 %29.99 in10.0 miSW (220°)11.5 mphOvercast
3:53 PM68.0 °F60.1 °F76 %29.98 in10.0 miSW (230°)15.0 mphOvercast
4:53 PM68.0 °F60.1 °F76 %29.97 in10.0 miSW (230°)10.4 mphOvercast
5:53 PM68.0 °F60.1 °F76 %29.96 in10.0 miSW (230°)10.4 mphOvercast
6:32 PM66.2 °F60.8 °F83 %29.95 in9.0 miSW (230°)8.1 mphScattered Clouds
6:53 PM66.9 °F59.0 °F76 %29.96 in10.0 miSW (230°)9.2 mphPartly Cloudy
7:53 PM63.0 °F59.0 °F87 %29.96 in10.0 miSSW (210°)4.6 mphClear
8:53 PM57.0 °F55.9 °F96 %29.97 in6.0 miCalmClear
9:13 PM55.4 °F55.4 °F100 %29.97 in1.8 miSW (220°)3.5 mphClear
9:26 PM57.2 °F57.2 °F100 %29.97 in3.0 miSW (220°)3.5 mphClear
9:53 PM55.0 °F55.0 °F100 %29.97 in5.0 miSW (230°)3.5 mphClear
10:53 PM59.0 °F57.0 °F93 %29.97 in10.0 miSW (230°)5.8 mphClear
11:53 PM59.0 °F57.0 °F93 %29.97 in10.0 miSW (230°)5.8 mphClear
Hourly data recorded from KARB, located miles away from Chelsea, Michigan







STORIES FROM OUR PARTNERS